Regional Weather Roundup
Issued by NWS Pendleton, OR

Home | Current Version | Previous Version | Text Only | Print | Product List | Glossary On
Versions: 1 2 3 4 5 6 7 8 9 10 11 12 13 14 15 16 17 18 19 20 21 22 23 24 25 26 27 28 29 30 31 32 33 34 35 36 37 38 39 40 41 42 43 44 45 46 47 48 49 50
000
ASUS46 KPDT 230825
RWRPDT
PENDLETON REGIONAL WEATHER ROUNDUP
NATIONAL WEATHER SERVICE PENDLETON OREGON
100 AM PDT THU MAR 23 2017

NOTE: FAIR INDICATES FEW OR NO CLOUDS BELOW 12,000 FEET WITH NO
SIGNIFICANT WEATHER AND/OR OBSTRUCTIONS TO VISIBILITY.

# INDICATES UNOFFICIAL STATION AND DATA

WAZ520-230910-
EAST SLOPES OF WASHINGTON CASCADES

CITY            SKY/WX      TMP DP  RH  WIND    PRES   REMARKS
#CLE ELUM HS    N/A         37  29  72  CALM    29.97R
#CLE ELUM LAKE  N/A         35  28  75  CALM    30.02R
#GLENWOOD       N/A         37  32  82  SW2     30.07R
#NELSON 3SW     N/A         31  29  92  CALM    30.26R
#NILE           N/A         32  30  92  CALM    29.31R
#TEANAWAY 4NE   N/A         37  31  79  CALM    N/A
#TROUT LAKE 1NE N/A         34  31  89  CALM    30.10R
#TROUT LAKE 1E  N/A         30  29  96  CALM    30.08R
$$

WAZ521-230910-
SIMCOE HIGHLANDS

CITY            SKY/WX      TMP DP  RH  WIND    PRES   REMARKS
#BICKLETON HS   N/A         33  29  85  SW8     30.05R
#CENTERVILLE 1SWN/A         36  31  82  W6      30.06R
#GOLDENDALE 1NE N/A         36  25  64  W2      N/A
#GOLDENDALE 4W  N/A         38  17  42  W7      30.08R
#GOODNOE HILLS  N/A         38  31  76  NW8     29.98R
#LYLE 6NE       N/A         39  36  89  S8      30.07R
#PITT 4SE       N/A         35  33  92  W5      30.12R
$$

WAZ026-230910-
KITTITAS VALLEY

CITY            SKY/WX      TMP DP  RH  WIND    PRES   REMARKS
ELLENSBURG AP   CLEAR       38  29  70  NW14    30.01R WCI 30
#ELLENSBURG CWU N/A         38  31  76  NW10    29.98R
#ELLENSBURG 3NE N/A         36  31  82  N3      28.09R
#ELLENSBURG 1E  N/A         38  N/A N/A CALM    N/A
#ELLENSBURG 13S N/A         36  31  82  CALM    N/A
#KITTITAS 4N    N/A         36  28  72  W9      30.02R
#KITTITAS 3S    N/A         36  31  82  NW2     30.02R
#THORP 6N       N/A         37  29  72  W15G31  30.04R WCI 28
$$

WAZ027-230910-
YAKIMA VALLEY

CITY            SKY/WX      TMP DP  RH  WIND    PRES   REMARKS
SUNNYSIDE AP    CLEAR       34  31  89  NE5     30.05R
YAKIMA AIRPORT  CLEAR       44  29  55  S6      30.02R
YAKIMA-VAGABOND CLEAR       35  27  72  SE6     29.99S
#DONALD 2NE     N/A         39  18  42  N2      28.88R
#GRANDVIEW      N/A         37  29  72  CALM    30.07R
#MABTON         N/A         40  33  76  CALM    30.04R
#MOXEE 2E       N/A         41   0  17  E2      29.98R
#NACHES 2SW     N/A         38  31  76  W1      29.97S
#TERRACE HTS    N/A         38  28  67  CALM    30.00R
#TOPPENISH      N/A         41  33  73  CALM    29.96S
#WEST VALLEY    N/A         44  27  51  W1      30.01S
#W YAKIMA       N/A         43  28  55  W9      30.03R
#WHITE SWAN 5E  N/A         43  31  62  SW1     30.03S
$$

WAZ028-230910-
LOWER COLUMBIA BASIN...WASHINGTON

CITY            SKY/WX      TMP DP  RH  WIND    PRES   REMARKS
HANFORD         CLEAR       42  32  67  W10     30.00R
PASCO           CLEAR       42  34  73  S8      30.05R
PROSSER AWOS    N/A         36  32  85  CALM    30.08R
RICHLAND AWOS   CLEAR       44  35  70  SW6     30.06R
#BENTON CITY    N/A         39  33  79  W1      29.96R
#CONNELL 5N     N/A         36  34  92  SW5     30.03R
#CONNELL 5NW    N/A         37  34  89  S1      29.98R
#ELTOPIA 6NW    N/A         41  36  82  CALM    28.99R
#KAHLOTUS       N/A         40  36  85  W22     30.02R WCI 30
#KENNEWICK 3S   N/A         42  36  79  S7      30.06R
#PATERSON       N/A         42  36  79  N1      30.06R
#SAGEMOOR 2W    N/A         40  34  79  SW6     29.91R
#TOUCHET 2S     N/A         43  37  79  SW12    30.05R WCI 37
#WEST PASCO     N/A         44  35  70  W3      30.03R
$$

WAZ029-230910-
FOOTHILLS OF THE BLUES...WASHINGTON

CITY            SKY/WX      TMP DP  RH  WIND    PRES   REMARKS
WALLA WALLA AP  CLEAR       43  35  73  S12     30.06R WCI 37
#CLYDE 6NW      N/A         39  36  89  S9      30.04R
#DAYTON SCHOOL  N/A         43  29  57  SW10    30.05R
#LOWDEN 2SE     N/A         42  37  82  NE1     30.03R
#PLEASANT VIEW 1N/A         37  35  92  S12     30.07R WCI 29
#PRESCOTT       N/A         42  38  86  SW2     30.05R
#WHITMAN COLLEGEN/A         44  36  73  S3      30.13R
#WAITSBURG 5S   N/A         39  35  85  S7      30.16R
#WAITSBURG 8N   N/A         38  N/A N/A S13     29.99R WCI 30
#WALLA WALLA 5E N/A         43  35  73  S15     N/A    WCI 36
#WALLA WALLA U  N/A         45  37  73  S6      30.09R
#WHITMAN MISSIONN/A         44  37  76  CALM    30.09R
$$

WAZ030-230910-
BLUE MOUNTAINS...WASHINGTON

CITY            SKY/WX      TMP DP  RH  WIND    PRES   REMARKS
#DIXIE 5SE      N/A         43  36  76  S7      29.94R
$$

ORZ009-041-WAZ024-230910-
COLUMBIA RIVER GORGE

CITY            SKY/WX      TMP DP  RH  WIND    PRES   REMARKS
HOOD RIVER AP   MOCLDY      43  36  76  W3      30.11R
THE DALLES AP   MOCLEAR     46  37  71  NW16    30.10R WCI 39
#ARLINGTON AIRPON/A         41  35  79  W3      30.10R
#ARLINGTON HS   N/A         43  34  70  S6      30.01R
#CELILO DOT     N/A         45  32  60  SW6     N/A
#LYLE           N/A         46  40  79  CALM    30.13R
#MOSIER 1S      N/A         41  28  59  CALM    30.09R
#MURDOCK        N/A         45  38  76  NW8     30.08R
#RUFUS DOT      N/A         46  38  73  W14     N/A    WCI 40
#SMITHVILLE     N/A         46  39  76  N10     30.05R

$$

ORZ510-230910-
NORTH CENTRAL OREGON

CITY            SKY/WX      TMP DP  RH  WIND    PRES   REMARKS
#ANTELOPE       N/A         29  26  88  NE2     29.98R
#CHENOWITH 1W   N/A         38  35  89  W13     N/A    WCI 30
#COW CYN RST AREN/A         35  30  82  SW2     N/A
#DUFUR          N/A         34  31  89  CALM    30.06R
#DUFUR 9E       N/A         37  32  82  W5      30.15R
#GRASS VALLEY 1SN/A         32  29  89  SW2     30.19R
#KENT DOT       N/A         34  26  72  N10     N/A
#MAUPIN SCHOOL  N/A         40  32  73  CALM    30.14R
#MORO SCHOOL    N/A         39  37  92  NW7     30.14R
#SHANIKO 5WSW   N/A         33  23  66  N8      N/A
#SHANIKO 4NW    N/A         32  27  82  SW10    30.02R
#TYGH VALLEY 2NEN/A         40  32  73  N2      30.09R
#WAPANITIA AIRPON/A         38  32  79  W3      30.11S
#WASCO 5NE      N/A         37  33  85  SW5     30.09R
$$

ORZ511-230910-
CENTRAL OREGON

CITY            SKY/WX      TMP DP  RH  WIND    PRES   REMARKS
BEND AIRPORT    CLEAR       28  27  96  CALM    30.06R
MADRAS AIRPORT  CLEAR       32  28  85  CALM    30.09R
PRINEVILLE AP   CLOUDY      34  30  85  CALM    30.06R
REDMOND AIRPORT PTCLDY      29  24  81  CALM    30.06R
#ASHWOOD SCHOOL N/A         32  29  89  CALM    30.04R
#BEND 1SW       N/A         30  27  88  CALM    N/A
#BEND-AWBREY    N/A         33  29  85  CALM    30.07R
#BEND-KIM LN    N/A         27  24  88  CALM    30.05R
#CULVER         N/A         36  28  72  SW1     30.03R
#CULVER 8W      N/A         32  27  82  CALM    30.06S
#LAKE BILLY CHINN/A         38  N/A N/A E2      30.17R
#POWELL BUTTE   N/A         34  26  72  S1      30.00R
#PRINEVILLE     N/A         34  29  82  CALM    30.17R
#PRINEVILLE 3N  N/A         30  28  92  E3      30.09R
#WARM SPRINGS   N/A         34  30  85  CALM    30.05R

$$


ORZ509-230910-
EAST SLOPES OF OREGON CASCADES

CITY            SKY/WX      TMP DP  RH  WIND    PRES   REMARKS
SISTERS AWOS    N/A         36  30  79  W8      30.02R
#BLUE BOX PASS  N/A         29  N/A N/A NW2     N/A
#CAMP SHERMAN   N/A         29  26  88  CALM    30.19R
#LA PINE 4NW    N/A         26  23  88  CALM    30.14R
#LAVA BUTTE DOT N/A         29  26  88  SE1     N/A
#SISTERS ODOT   N/A         35  N/A N/A SW5     N/A
#SISTERS 3N     N/A         32  25  75  W2      30.08R
#SUNRIVER       N/A         28  26  92  CALM    30.10R
#TUMALO 3W      N/A         31  28  88  CALM    29.97R
#WANOGA BUTTE D N/A         26  23  88  NW3     N/A

$$

ORZ044-230910-
LOWER COLUMBIA BASIN...OREGON

CITY            SKY/WX      TMP DP  RH  WIND    PRES   REMARKS
HERMISTON       CLEAR       43  36  76  SW13    30.06R WCI 36
#BOARDMAN SCHOOLN/A         44  37  76  N9      30.07R
#BOARDMAN 8SW   N/A         41  36  82  SW8     30.08R
#ECHO 8SW       N/A         44  36  73  W7      30.08R
#I-84 EX 198 DOTN/A         42  33  70  N16     N/A    WCI 34
#IONE SCHOOL    N/A         40  22  48  CALM    30.12R
#UMATILLA       N/A         42  34  73  CALM    30.01R
$$

ORZ507-230910-
NORTHERN FOOTHILLS OF THE BLUES

CITY            SKY/WX      TMP DP  RH  WIND    PRES   REMARKS
PENDLETON AIRPT CLEAR       41  34  76  SW13    30.05S WCI 34
#ADAMS 3WNW     N/A         39  34  82  SW7     30.08S
#ATHENA         N/A         40  34  79  SW3     30.11R
#CAYUSE         N/A         41  34  76  W7      30.08S
#HELIX SCHOOL   N/A         39  34  82  N9      30.08R
#HELIX 3N       N/A         37  34  89  S7      30.01R
#HOLDMAN 5SE    N/A         38  34  85  SW6     30.04R
#HOLDMAN 6E     N/A         38  35  89  S9      29.88R
#M-F FERNDALE   N/A         44  34  68  CALM    30.04R
#M-F GROVE ELEM N/A         43  32  65  S9      30.03R
#M-FREEWATER 5SEN/A         44  34  68  S6      30.06R
#PENDLETON DNTN N/A         43  35  73  CALM    30.07R
#PDT AQUATIC CTRN/A         41  32  70  CALM    29.96S
#PDT SUNRIDGE   N/A         41  34  76  SW1     30.09R
#PILOT ROCK 1S  N/A         41  27  57  CALM    30.07R
#PILOT ROCK     N/A         40  34  79  NW2     30.08R
#TUTUILLA       N/A         39  34  82  CALM    30.10R
#UMAPINE 2E     N/A         44  37  76  SW2     30.04R
#WESTON SCHOOL  N/A         40  31  70  W7      30.07R

$$

ORZ508-230910-
SOUTHERN FOOTHILLS OF THE BLUES

CITY            SKY/WX      TMP DP  RH  WIND    PRES   REMARKS
LEXINGTON       MOCLDY      41  34  76  S5      30.11R
#AJAX           N/A         37  26  64  SE3     30.20R
#CONDON SCHOOL  N/A         34  30  85  SW6     30.00R
#CONDON 5W      N/A         33  27  78  W14     30.00S WCI 23
#FOSSIL SCHOOL  N/A         33  29  85  CALM    30.01R
#HEPPNER EOC    N/A         38  32  79  CALM    30.03R
#HEPPNER 4NE    N/A         35  31  85  S2      30.09R
#LEXINGTON 2SE  N/A         40  34  79  CALM    30.04R
#OLEX 4N        N/A         39  34  82  S5      30.06R
#RUGGS 5NE      N/A         35  32  89  SW9     30.20S
#RUGGS 2SW      N/A         34  29  82  SW6     30.11R

$$

ORZ502-503-230910-
BLUE MOUNTAINS

CITY            SKY/WX      TMP DP  RH  WIND    PRES   REMARKS
MEACHAM         PTCLDY      32  28  85  CALM    30.02S
#BATTLE MTN DOT N/A         31  29  92  CALM    N/A
#GREENHORN 9SW  N/A         32  N/A N/A CALM    26.21S
#HEPPNER 15SE   N/A         31  29  92  CALM    30.04R
#LADD CYN SMT   N/A         36  34  92  NW12    N/A    WCI 28
#LADD CREEK ODOTN/A         39  33  79  NE9     N/A
#LONG CREEK HS  N/A         35  35  100 CALM    N/A
#N POWDER DOT   N/A         38  35  89  NE15    N/A    WCI 29
#PIKES PEAK     N/A         35  29  78  W22G29  27.99S WCI 23
#TOLLGATE       N/A         27  26  96  S3      29.85R
#TROY SCHOOL    N/A         41  38  89  CALM    29.90R
#UKIAH          N/A         31  29  92  CALM    29.99R
#WESTON 4E      N/A         34  31  89  SW6     30.04R
$$

ORZ505-230910-
JOHN DAY BASIN

CITY            SKY/WX      TMP DP  RH  WIND    PRES   REMARKS
JOHN DAY        MOCLDY      36  34  92  CALM    30.04R
#JOHN DAY KJDY  N/A         35  N/A N/A CALM    29.59R
#ANTELOPE 9ESE  N/A         35  31  85  SW1     N/A
#DAYVILLE SCHOOLN/A         38  31  76  CALM    30.01R
#MITCHELL       N/A         32  30  92  CALM    30.22R
#MITCHELL 8NW   N/A         35  29  78  CALM    29.90R
#MONUMENT HS    N/A         38  32  79  CALM    30.01S
#MT. VERNON 5SE N/A         35  32  89  CALM    29.97R
#SPRAY SCHOOL   N/A         42  N/A N/A CALM    N/A
#WINLOCK        N/A         33  28  82  CALM    30.01R
$$

ORZ506-230910-
OCHOCO AND JOHN DAY HIGHLANDS

CITY            SKY/WX      TMP DP  RH  WIND    PRES   REMARKS
#HORSE RIDGE DO N/A         23  19  84  CALM    N/A
#PAULINA SCHOOL N/A         35  29  78  W8      N/A
#PINE MTN OBS   N/A         26  23  88  NW6     N/A
#PRAIRIE CITY   N/A         34  32  92  CALM    30.17R
#SENECA         N/A         30  N/A N/A CALM    N/A
#SENECA 9NW     N/A         28  27  96  CALM    30.04R
$$

ORZ049-230910-
GRANDE RONDE VALLEY

CITY            SKY/WX      TMP DP  RH  WIND    PRES   REMARKS
LA GRANDE       PTCLDY      37  30  75  N9      30.03R
#COVE           N/A         39  38  96  NE3     30.06R
#COVE SCHOOL    N/A         39  36  89  CALM    30.05R
#COVE 6NW       N/A         39  35  85  NW5     30.06R
#ELGIN 3N       N/A         37  28  70  CALM    30.00S
#ELGIN 1E       N/A         39  32  76  CALM    N/A
#IMBLER SCHOOL  N/A         39  31  73  CALM    29.99S
#ISLAND CITY 4N N/A         39  38  96  CALM    30.14S
#UNION 1S       N/A         38  35  89  CALM    30.06R
$$

ORZ050-230910-
WALLOWA COUNTY

CITY            SKY/WX      TMP DP  RH  WIND    PRES   REMARKS
JOSEPH AIRPORT  CLOUDY      36  32  85  N5      30.02R
#IMNAHA SCHOOL  N/A         42  38  86  N1      30.03R
#JOSEPH 3N      N/A         35  30  82  CALM    30.03R
#JOSEPH 3W      N/A         33  33  100 CALM    29.85R
#LOSTINE        N/A         34  33  96  CALM    29.88R
#LOSTINE 3SE    N/A         35  34  96  N3      30.06R
#MT HOWARD 8000 N/A         23  21  92  N1      29.91R
#PROMISE 1S     N/A         35  31  85  E5      30.12R
#WALLOWA SCHOOL N/A         35  33  92  CALM    30.00R



$$



USA.gov is the U.S. government's official web portal to all federal, state and local government web resources and services.